Time,TemperatureF,DewpointF,PressureIn,WindDirection,WindDirectionDegrees,WindSpeedMPH,WindSpeedGustMPH,Humidity,HourlyPrecipIn,Conditions,Clouds,dailyrainin,SoftwareType,DateUTC
2013-03-12 00:02:00,40.0,38.0,30.21,South,176,5.0,11.0,92,0.00,,,0.00,,2013-03-12 04:02:00,
2013-03-12 00:13:00,40.0,38.0,30.21,South,176,5.0,11.0,92,0.00,,,0.00,,2013-03-12 04:13:00,
2013-03-12 00:22:00,40.0,38.0,30.20,South,176,7.0,13.0,92,0.00,,,0.00,,2013-03-12 04:22:00,
2013-03-12 00:32:00,41.0,39.0,30.20,South,182,6.0,14.0,92,0.00,,,0.00,,2013-03-12 04:32:00,
2013-03-12 00:43:00,41.0,39.0,30.20,South,182,6.0,14.0,92,0.00,,,0.00,,2013-03-12 04:43:00,
2013-03-12 00:52:00,41.0,39.0,30.20,SSW,196,7.0,11.0,92,0.00,,,0.00,,2013-03-12 04:52:00,
2013-03-12 01:02:00,41.0,39.0,30.20,South,176,6.0,15.0,92,0.00,,,0.00,,2013-03-12 05:02:00,
2013-03-12 01:12:00,41.0,39.0,30.20,South,176,6.0,15.0,92,0.00,,,0.00,,2013-03-12 05:12:00,
2013-03-12 01:22:00,41.0,39.0,30.19,SSW,203,8.0,16.0,92,0.00,,,0.00,,2013-03-12 05:22:00,
2013-03-12 01:32:00,41.0,39.0,30.19,SSE,157,8.0,16.0,91,0.00,,,0.00,,2013-03-12 05:32:00,
2013-03-12 01:42:00,41.0,39.0,30.19,SSE,157,8.0,16.0,91,0.00,,,0.00,,2013-03-12 05:42:00,
2013-03-12 01:52:00,41.0,38.0,30.20,SSW,212,6.0,16.0,90,0.00,,,0.00,,2013-03-12 05:52:00,
2013-03-12 02:02:00,41.0,38.0,30.21,South,178,10.0,15.0,89,0.00,,,0.00,,2013-03-12 06:02:00,
2013-03-12 02:12:00,41.0,38.0,30.21,South,178,10.0,15.0,89,0.00,,,0.00,,2013-03-12 06:12:00,
2013-03-12 02:22:00,41.0,38.0,30.20,SW,226,8.0,16.0,89,0.00,,,0.00,,2013-03-12 06:22:00,
2013-03-12 02:32:00,41.0,38.0,30.20,South,178,7.0,16.0,88,0.00,,,0.00,,2013-03-12 06:32:00,
2013-03-12 02:42:00,41.0,38.0,30.20,South,178,7.0,16.0,88,0.00,,,0.00,,2013-03-12 06:42:00,
2013-03-12 02:52:00,41.0,37.0,30.19,SSW,197,6.0,12.0,87,0.00,,,0.00,,2013-03-12 06:52:00,
2013-03-12 03:02:00,41.0,37.0,30.19,South,171,7.0,11.0,86,0.00,,,0.00,,2013-03-12 07:02:00,
2013-03-12 03:12:00,41.0,37.0,30.19,South,171,7.0,11.0,86,0.00,,,0.00,,2013-03-12 07:12:00,
2013-03-12 03:22:00,41.0,37.0,30.19,SSW,211,6.0,14.0,87,0.00,,,0.00,,2013-03-12 07:22:00,
2013-03-12 03:32:00,41.0,38.0,30.19,South,190,6.0,11.0,89,0.00,,,0.00,,2013-03-12 07:32:00,
2013-03-12 03:42:00,41.0,38.0,30.19,South,190,6.0,11.0,89,0.00,,,0.00,,2013-03-12 07:42:00,
2013-03-12 03:52:00,41.0,38.0,30.19,SSW,197,6.0,10.0,90,0.00,,,0.00,,2013-03-12 07:52:00,
2013-03-12 04:02:00,40.0,38.0,30.18,South,169,5.0,10.0,91,0.00,,,0.00,,2013-03-12 08:02:00,
2013-03-12 04:13:00,40.0,38.0,30.18,South,169,5.0,10.0,91,0.00,,,0.00,,2013-03-12 08:13:00,
2013-03-12 04:22:00,40.0,38.0,30.17,South,180,7.0,11.0,91,0.00,,,0.00,,2013-03-12 08:22:00,
2013-03-12 04:33:00,40.0,38.0,30.17,South,180,6.0,10.0,91,0.00,,,0.00,,2013-03-12 08:33:00,
2013-03-12 04:42:00,40.0,38.0,30.17,South,180,6.0,10.0,91,0.00,,,0.00,,2013-03-12 08:42:00,
2013-03-12 04:52:00,40.0,38.0,30.17,SSE,166,7.0,11.0,92,0.00,,,0.00,,2013-03-12 08:52:00,
2013-03-12 05:03:00,41.0,39.0,30.17,South,176,6.0,13.0,92,0.00,,,0.00,,2013-03-12 09:03:00,
2013-03-12 05:12:00,41.0,39.0,30.17,South,176,6.0,13.0,92,0.00,,,0.00,,2013-03-12 09:12:00,
2013-03-12 05:22:00,41.0,39.0,30.17,SSE,163,6.0,12.0,92,0.00,,,0.00,,2013-03-12 09:22:00,
2013-03-12 05:33:00,41.0,39.0,30.17,South,169,6.0,12.0,92,0.00,,,0.00,,2013-03-12 09:33:00,
2013-03-12 05:42:00,41.0,39.0,30.17,South,169,6.0,12.0,92,0.00,,,0.00,,2013-03-12 09:42:00,
2013-03-12 05:52:00,41.0,39.0,30.17,South,177,7.0,12.0,92,0.00,,,0.00,,2013-03-12 09:52:00,
2013-03-12 06:02:00,41.0,39.0,30.17,SSE,168,9.0,16.0,93,0.00,,,0.00,,2013-03-12 10:02:00,
2013-03-12 06:12:00,41.0,39.0,30.17,SSE,168,9.0,16.0,93,0.00,,,0.00,,2013-03-12 10:12:00,
2013-03-12 06:22:00,41.0,39.0,30.17,South,190,8.0,16.0,93,0.00,,,0.00,,2013-03-12 10:22:00,
2013-03-12 06:32:00,41.0,39.0,30.17,SSE,159,10.0,15.0,93,0.00,,,0.00,,2013-03-12 10:32:00,
2013-03-12 06:42:00,41.0,39.0,30.17,SSE,159,10.0,15.0,93,0.00,,,0.00,,2013-03-12 10:42:00,
2013-03-12 06:52:00,41.0,39.0,30.16,SE,144,7.0,15.0,93,0.00,,,0.00,,2013-03-12 10:52:00,
2013-03-12 07:02:00,41.0,39.0,30.16,SE,144,8.0,13.0,93,0.00,,,0.00,,2013-03-12 11:02:00,
2013-03-12 07:12:00,41.0,39.0,30.16,SE,144,8.0,13.0,93,0.00,,,0.00,,2013-03-12 11:12:00,
2013-03-12 07:22:00,41.0,39.0,30.17,SSE,163,8.0,15.0,93,0.00,,,0.00,,2013-03-12 11:22:00,
2013-03-12 07:32:00,41.0,39.0,30.17,SSE,165,7.0,16.0,94,0.00,,,0.00,,2013-03-12 11:32:00,
2013-03-12 07:42:00,41.0,39.0,30.17,SSE,165,7.0,16.0,94,0.00,,,0.00,,2013-03-12 11:42:00,
2013-03-12 07:52:00,41.0,39.0,30.17,SSE,151,9.0,16.0,94,0.00,,,0.00,,2013-03-12 11:52:00,
2013-03-12 08:03:00,41.0,39.0,30.16,SSW,194,8.0,13.0,94,0.00,,,0.00,,2013-03-12 12:03:00,
2013-03-12 08:12:00,41.0,39.0,30.16,SSW,194,8.0,13.0,94,0.00,,,0.00,,2013-03-12 12:12:00,
2013-03-12 08:22:00,42.0,40.0,30.16,SSE,156,9.0,17.0,93,0.00,,,0.00,,2013-03-12 12:22:00,
2013-03-12 08:32:00,42.0,40.0,30.16,SSE,158,9.0,16.0,93,0.00,,,0.00,,2013-03-12 12:32:00,
2013-03-12 08:42:00,42.0,40.0,30.16,SSE,158,9.0,16.0,93,0.00,,,0.00,,2013-03-12 12:42:00,
2013-03-12 08:52:00,42.0,40.0,30.16,SE,135,9.0,17.0,93,0.00,,,0.00,,2013-03-12 12:52:00,
2013-03-12 09:02:00,42.0,40.0,30.16,SSE,168,7.0,13.0,92,0.00,,,0.00,,2013-03-12 13:02:00,
2013-03-12 09:12:00,42.0,40.0,30.16,SSE,168,7.0,13.0,92,0.00,,,0.00,,2013-03-12 13:12:00,
2013-03-12 09:22:00,42.0,40.0,30.16,SSE,148,6.0,16.0,92,0.00,,,0.00,,2013-03-12 13:22:00,
2013-03-12 09:32:00,42.0,40.0,30.15,SE,130,10.0,16.0,92,0.00,,,0.00,,2013-03-12 13:32:00,
2013-03-12 09:42:00,42.0,40.0,30.15,SE,130,10.0,16.0,92,0.00,,,0.00,,2013-03-12 13:42:00,
2013-03-12 09:52:00,43.0,41.0,30.14,SSE,157,10.0,17.0,92,0.00,,,0.00,,2013-03-12 13:52:00,
2013-03-12 10:02:00,43.0,40.0,30.15,South,173,7.0,14.0,90,0.00,,,0.00,,2013-03-12 14:02:00,
2013-03-12 10:12:00,43.0,40.0,30.15,South,173,7.0,14.0,90,0.00,,,0.00,,2013-03-12 14:12:00,
2013-03-12 10:22:00,44.0,41.0,30.16,SE,145,8.0,18.0,89,0.00,,,0.00,,2013-03-12 14:22:00,
2013-03-12 10:33:00,45.0,41.0,30.15,SSE,167,7.0,16.0,86,0.00,,,0.00,,2013-03-12 14:33:00,
2013-03-12 10:42:00,45.0,41.0,30.15,SSE,167,7.0,16.0,86,0.00,,,0.00,,2013-03-12 14:42:00,
2013-03-12 10:53:00,45.0,41.0,30.14,SE,138,8.0,16.0,85,0.00,,,0.00,,2013-03-12 14:53:00,
2013-03-12 11:03:00,45.0,41.0,30.15,South,171,11.0,18.0,85,0.00,,,0.00,,2013-03-12 15:03:00,
2013-03-12 11:13:00,45.0,41.0,30.15,South,171,11.0,18.0,85,0.00,,,0.00,,2013-03-12 15:13:00,
2013-03-12 11:22:00,46.0,41.0,30.14,SSE,161,12.0,20.0,84,0.00,,,0.00,,2013-03-12 15:22:00,
2013-03-12 11:32:00,46.0,42.0,30.14,South,175,9.0,21.0,85,0.00,,,0.00,,2013-03-12 15:32:00,
2013-03-12 11:42:00,46.0,42.0,30.14,South,175,9.0,21.0,85,0.00,,,0.00,,2013-03-12 15:42:00,
2013-03-12 11:52:00,47.0,41.0,30.14,SSE,152,11.0,19.0,81,0.00,,,0.00,,2013-03-12 15:52:00,
2013-03-12 12:03:00,47.0,41.0,30.14,SSE,161,8.0,17.0,80,0.00,,,0.00,,2013-03-12 16:03:00,
2013-03-12 12:12:00,47.0,41.0,30.14,SSE,161,8.0,17.0,80,0.00,,,0.00,,2013-03-12 16:12:00,
2013-03-12 12:23:00,47.0,41.0,30.14,South,186,10.0,20.0,81,0.00,,,0.00,,2013-03-12 16:23:00,
2013-03-12 12:33:00,46.0,41.0,30.14,SSE,163,10.0,20.0,82,0.00,,,0.00,,2013-03-12 16:33:00,
2013-03-12 12:43:00,46.0,41.0,30.14,SSE,163,10.0,20.0,82,0.00,,,0.00,,2013-03-12 16:43:00,
2013-03-12 12:52:00,46.0,41.0,30.13,SSE,167,11.0,20.0,82,0.00,,,0.00,,2013-03-12 16:52:00,
2013-03-12 13:03:00,46.0,41.0,30.13,SE,143,8.0,15.0,83,0.00,,,0.00,,2013-03-12 17:03:00,
2013-03-12 13:13:00,46.0,41.0,30.13,SE,143,8.0,15.0,83,0.00,,,0.00,,2013-03-12 17:13:00,
2013-03-12 13:23:00,46.0,41.0,30.13,South,185,10.0,20.0,83,0.00,,,0.00,,2013-03-12 17:23:00,
2013-03-12 13:34:00,46.0,41.0,30.11,SSE,148,9.0,17.0,83,0.00,,,0.00,,2013-03-12 17:34:00,
2013-03-12 13:43:00,46.0,41.0,30.11,SSE,148,9.0,17.0,83,0.00,,,0.00,,2013-03-12 17:43:00,
2013-03-12 13:53:00,45.0,40.0,30.11,SE,132,9.0,17.0,83,0.00,,,0.00,,2013-03-12 17:53:00,
2013-03-12 14:03:00,45.0,40.0,30.09,SSE,159,9.0,17.0,84,0.00,,,0.00,,2013-03-12 18:03:00,
2013-03-12 14:13:00,46.0,41.0,30.09,SSE,158,10.0,15.0,83,0.00,,,0.00,,2013-03-12 18:13:00,
2013-03-12 14:23:00,46.0,41.0,30.09,SSE,158,10.0,15.0,83,0.00,,,0.00,,2013-03-12 18:23:00,
2013-03-12 14:33:00,46.0,41.0,30.08,SSE,164,9.0,15.0,83,0.00,,,0.00,,2013-03-12 18:33:00,
2013-03-12 14:42:00,46.0,41.0,30.08,SSE,164,9.0,15.0,83,0.00,,,0.00,,2013-03-12 18:42:00,
2013-03-12 14:53:00,46.0,41.0,30.08,SSW,195,8.0,16.0,83,0.00,,,0.00,,2013-03-12 18:53:00,
2013-03-12 15:04:00,46.0,41.0,30.08,SSW,198,9.0,17.0,82,0.00,,,0.00,,2013-03-12 19:04:00,
2013-03-12 15:13:00,46.0,41.0,30.08,SSW,198,9.0,17.0,82,0.00,,,0.00,,2013-03-12 19:13:00,
2013-03-12 15:23:00,46.0,41.0,30.08,SSE,157,10.0,18.0,82,0.00,,,0.00,,2013-03-12 19:23:00,
2013-03-12 15:33:00,46.0,41.0,30.07,SE,146,8.0,15.0,83,0.00,,,0.00,,2013-03-12 19:33:00,
2013-03-12 15:43:00,46.0,41.0,30.07,SE,146,8.0,15.0,83,0.00,,,0.00,,2013-03-12 19:43:00,
2013-03-12 15:53:00,46.0,41.0,30.06,SSE,152,9.0,18.0,82,0.00,,,0.00,,2013-03-12 19:53:00,
2013-03-12 16:02:00,46.0,41.0,30.05,SSE,157,12.0,19.0,83,0.00,,,0.00,,2013-03-12 20:02:00,
2013-03-12 16:12:00,46.0,41.0,30.05,SSE,157,12.0,19.0,83,0.00,,,0.00,,2013-03-12 20:12:00,
2013-03-12 16:23:00,46.0,41.0,30.05,ESE,105,11.0,21.0,82,0.00,,,0.00,,2013-03-12 20:23:00,
2013-03-12 16:33:00,46.0,41.0,30.04,ESE,115,12.0,21.0,83,0.00,,,0.00,,2013-03-12 20:33:00,
2013-03-12 16:42:00,46.0,41.0,30.04,ESE,115,12.0,21.0,83,0.00,,,0.00,,2013-03-12 20:42:00,
2013-03-12 16:52:00,46.0,41.0,30.05,South,173,12.0,22.0,84,0.00,,,0.00,,2013-03-12 20:52:00,
2013-03-12 17:03:00,45.0,41.0,30.04,SSW,196,11.0,17.0,86,0.00,,,0.00,,2013-03-12 21:03:00,
2013-03-12 17:13:00,45.0,41.0,30.04,SSW,196,11.0,17.0,86,0.00,,,0.00,,2013-03-12 21:13:00,
2013-03-12 17:22:00,45.0,41.0,30.04,SSE,164,11.0,18.0,87,0.00,,,0.00,,2013-03-12 21:22:00,
2013-03-12 17:33:00,45.0,42.0,30.03,SSE,156,9.0,17.0,88,0.00,,,0.00,,2013-03-12 21:33:00,
2013-03-12 17:43:00,45.0,42.0,30.03,SSE,156,9.0,17.0,88,0.00,,,0.00,,2013-03-12 21:43:00,
2013-03-12 17:52:00,45.0,42.0,30.02,ESE,119,10.0,20.0,88,0.00,,,0.00,,2013-03-12 21:52:00,
2013-03-12 18:03:00,45.0,42.0,30.03,SE,132,11.0,18.0,89,0.00,,,0.00,,2013-03-12 22:03:00,
2013-03-12 18:13:00,45.0,42.0,30.03,SE,132,11.0,18.0,89,0.00,,,0.00,,2013-03-12 22:13:00,
2013-03-12 18:22:00,45.0,42.0,30.02,SE,134,12.0,18.0,89,0.00,,,0.00,,2013-03-12 22:22:00,
2013-03-12 18:33:00,45.0,42.0,30.01,SSE,167,11.0,18.0,90,0.00,,,0.00,,2013-03-12 22:33:00,
2013-03-12 18:43:00,45.0,42.0,30.01,SSE,167,11.0,18.0,90,0.00,,,0.00,,2013-03-12 22:43:00,
2013-03-12 18:52:00,45.0,42.0,30.00,SE,124,11.0,23.0,90,0.00,,,0.00,,2013-03-12 22:52:00,
2013-03-12 19:03:00,45.0,42.0,30.00,SSE,168,11.0,24.0,90,0.00,,,0.00,,2013-03-12 23:03:00,
2013-03-12 19:12:00,45.0,42.0,30.00,SSE,168,11.0,24.0,90,0.00,,,0.00,,2013-03-12 23:12:00,
2013-03-12 19:23:00,45.0,42.0,29.99,SSE,162,10.0,22.0,90,0.00,,,0.00,,2013-03-12 23:23:00,
2013-03-12 19:34:00,45.0,43.0,29.99,SSE,150,12.0,26.0,91,0.00,,,0.00,,2013-03-12 23:34:00,
2013-03-12 19:43:00,45.0,43.0,29.99,SSE,150,12.0,26.0,91,0.00,,,0.00,,2013-03-12 23:43:00,
2013-03-12 19:52:00,45.0,43.0,29.98,SE,146,14.0,23.0,92,0.00,,,0.00,,2013-03-12 23:52:00,
2013-03-12 20:03:00,45.0,43.0,29.98,SSE,160,14.0,27.0,92,0.04,,,0.04,,2013-03-13 00:03:00,
2013-03-12 20:13:00,45.0,43.0,29.98,SSE,160,14.0,27.0,92,0.04,,,0.04,,2013-03-13 00:13:00,
2013-03-12 20:23:00,45.0,43.0,29.98,SE,136,15.0,26.0,93,0.04,,,0.04,,2013-03-13 00:23:00,
2013-03-12 20:33:00,45.0,43.0,29.96,SE,134,12.0,24.0,93,0.06,,,0.06,,2013-03-13 00:33:00,
2013-03-12 20:42:00,45.0,43.0,29.96,SE,134,12.0,24.0,93,0.06,,,0.06,,2013-03-13 00:42:00,
2013-03-12 20:53:00,45.0,43.0,29.96,SE,137,12.0,20.0,93,0.07,,,0.07,,2013-03-13 00:53:00,
2013-03-12 21:03:00,45.0,43.0,29.95,SE,135,13.0,25.0,93,0.04,,,0.08,,2013-03-13 01:03:00,
2013-03-12 21:13:00,45.0,43.0,29.95,SE,135,13.0,25.0,93,0.04,,,0.08,,2013-03-13 01:13:00,
2013-03-12 21:22:00,45.0,43.0,29.94,SSE,160,16.0,28.0,94,0.04,,,0.08,,2013-03-13 01:22:00,
2013-03-12 21:33:00,45.0,43.0,29.93,SSE,155,12.0,30.0,93,0.05,,,0.11,,2013-03-13 01:33:00,
2013-03-12 21:42:00,45.0,43.0,29.93,SSE,155,12.0,30.0,93,0.05,,,0.11,,2013-03-13 01:42:00,
2013-03-12 21:52:00,45.0,43.0,29.93,SE,139,15.0,29.0,94,0.05,,,0.12,,2013-03-13 01:52:00,
2013-03-12 22:03:00,46.0,44.0,29.92,SSE,163,15.0,26.0,93,0.06,,,0.14,,2013-03-13 02:03:00,
2013-03-12 22:12:00,46.0,44.0,29.92,SSE,163,15.0,26.0,93,0.06,,,0.14,,2013-03-13 02:12:00,
2013-03-12 22:22:00,46.0,44.0,29.92,ESE,117,14.0,27.0,93,0.07,,,0.15,,2013-03-13 02:22:00,
2013-03-12 22:32:00,46.0,44.0,29.91,SE,134,14.0,24.0,94,0.08,,,0.19,,2013-03-13 02:32:00,
2013-03-12 22:43:00,46.0,44.0,29.91,SE,134,14.0,24.0,94,0.08,,,0.19,,2013-03-13 02:43:00,
2013-03-12 22:52:00,46.0,44.0,29.91,ESE,117,12.0,25.0,94,0.10,,,0.22,,2013-03-13 02:52:00,
2013-03-12 23:02:00,46.0,44.0,29.89,SE,143,13.0,31.0,94,0.13,,,0.27,,2013-03-13 03:02:00,
2013-03-12 23:13:00,46.0,44.0,29.89,SE,143,13.0,31.0,94,0.13,,,0.27,,2013-03-13 03:13:00,
2013-03-12 23:22:00,47.0,45.0,29.88,SSE,161,17.0,31.0,94,0.13,,,0.29,,2013-03-13 03:22:00,
2013-03-12 23:32:00,46.0,44.0,29.87,ESE,109,16.0,27.0,94,0.11,,,0.31,,2013-03-13 03:32:00,
2013-03-12 23:42:00,46.0,44.0,29.87,ESE,109,16.0,27.0,94,0.11,,,0.31,,2013-03-13 03:42:00,
2013-03-12 23:52:00,46.0,44.0,29.87,ESE,109,16.0,27.0,94,0.11,,,0.31,,2013-03-13 03:52:00,